Flag for Switzerland Weather past 2 weeks in Carouge, Geneva, Switzerland

Now
44 °F

Quite cool.


Feels Like: 40 °F
Forecast: 36 / 41 °F
Wind: 7 mph from Southwest

Location: Geneve-Cointrin

Current Time: Mar 4, 2015 at 4:00:44 AM

Latest Report: Mar 4, 2015 at 3:00 AM


Visibility: N/A

Pressure: 30.27 "Hg

Humidity: 81%

Dew point: 38 °F

Location of CarougeLocation

Historic Weather in Carouge — Graph

°F

Carouge temperature yesterday

Maximum temperature yesterday: 54 °F (at 3:00 PM)
Minimum temperature yesterday: 36 °F (at 6:00 AM)
Average temperature yesterday: 46 °F

Past Weeks' High & Low Weather Summary

 TemperatureHumidityPressure
High54 °F (Mar 3, 3:00 PM)95% (Feb 21, 1:00 PM)30.69 "Hg (Feb 21, 1:00 PM)
Low27 °F (Feb 20, 5:00 AM)23% (Feb 20, 3:00 PM)29.62 "Hg (Feb 21, 10:00 AM)
Average39 °F75%30.11 "Hg
* Reported Feb 17 2:00 AM — Mar 4 2:00 AM, Carouge, Weather by CustomWeather, © 2015

Note: Actual official high and low records may vary slightly from our data, if they occured in-between our weather recording intervals... More about our weather records

Advertising

Carouge weather history for previous 24 hours

 ConditionsComfort  
Time TempWeatherWind HumidityBarometerVisibility
2:00 AM
Wed, Mar 4
46 °FCool.9 mph70%30.28 "HgN/A
1:00 AM46 °FLight rain. Overcast.7 mph64%30.28 "Hg14 mi
12:00 AM46 °FCool.7 mph58%30.28 "HgN/A
11:00 PM
Tue, Mar 3
48 °FCool.7 mph48%30.26 "HgN/A
10:00 PM47 °FCool.9 mph50%30.26 "HgN/A
9:00 PM46 °FCool.6 mph51%30.26 "HgN/A
8:00 PM47 °FCool.7 mph50%30.25 "HgN/A
7:00 PM49 °FPassing clouds.6 mph43%30.23 "Hg37 mi
6:00 PM51 °FCool.7 mph42%30.22 "HgN/A
5:00 PM53 °FCool.12 mph36%30.20 "HgN/A
4:00 PM54 °FPassing clouds.12 mph37%30.20 "Hg37 mi
3:00 PM54 °FCool.12 mph37%30.20 "HgN/A
2:00 PM53 °FCool.9 mph39%30.22 "HgN/A
1:00 PM53 °FScattered clouds.9 mph47%30.23 "Hg31 mi
12:00 PM51 °FCool.9 mph54%30.24 "HgN/A
11:00 AM49 °FCool.5 mph62%30.26 "HgN/A
10:00 AM44 °FPartly sunny.3 mph70%30.28 "Hg25 mi
9:00 AM41 °FQuite cool.1 mph78%30.28 "HgN/A
8:00 AM37 °FChilly.2 mph87%30.28 "HgN/A
7:00 AM37 °FPassing clouds.3 mph87%30.28 "Hg25 mi
6:00 AM36 °FChilly.5 mph91%30.28 "HgN/A
5:00 AM38 °FChilly.5 mph87%30.27 "HgN/A
4:00 AM39 °FOvercast.3 mph85%30.26 "Hg19 mi
Weather by CustomWeather, © 2015

See weather overviewHow to use our weather pages